TimeMDT,TemperatureF,Dew PointF,Humidity,Sea Level PressureIn,VisibilityMPH,Wind Direction,Wind SpeedMPH,Gust SpeedMPH,PrecipitationIn,Events,Conditions,WindDirDegrees,DateUTC
12:53 AM,54.0,50.0,86,30.18,10.0,SSE,5.8,-,N/A,,Partly Cloudy,160,2013-07-02 06:53:00
1:53 AM,53.1,48.0,83,30.17,10.0,SSE,8.1,-,N/A,,Scattered Clouds,150,2013-07-02 07:53:00
2:53 AM,54.0,48.0,80,30.19,10.0,South,5.8,-,N/A,,Scattered Clouds,180,2013-07-02 08:53:00
3:53 AM,51.1,46.0,83,30.17,9.0,SE,4.6,-,N/A,,Clear,140,2013-07-02 09:53:00
4:53 AM,53.1,46.9,80,30.17,9.0,East,12.7,-,N/A,,Mostly Cloudy,80,2013-07-02 10:53:00
5:53 AM,55.0,45.0,69,30.19,10.0,SE,10.4,-,N/A,,Clear,130,2013-07-02 11:53:00
6:53 AM,57.0,46.0,67,30.17,10.0,SSE,11.5,-,N/A,,Mostly Cloudy,150,2013-07-02 12:53:00
8:53 AM,69.1,45.0,42,30.16,10.0,South,16.1,24.2,N/A,,Mostly Cloudy,180,2013-07-02 14:53:00
9:53 AM,72.0,45.0,38,30.15,10.0,South,16.1,-,N/A,,Clear,180,2013-07-02 15:53:00
10:53 AM,75.9,45.0,33,30.14,10.0,South,11.5,21.9,N/A,,Clear,170,2013-07-02 16:53:00
11:53 AM,77.0,46.9,34,30.14,10.0,SSE,11.5,19.6,N/A,,Clear,160,2013-07-02 17:53:00
12:53 PM,79.0,46.9,32,30.12,10.0,SSE,8.1,17.3,N/A,,Partly Cloudy,150,2013-07-02 18:53:00
1:53 PM,81.0,45.0,28,30.10,10.0,SSE,9.2,16.1,N/A,,Partly Cloudy,160,2013-07-02 19:53:00
2:53 PM,81.0,46.0,29,30.09,10.0,Variable,5.8,17.3,N/A,,Clear,0,2013-07-02 20:53:00
3:53 PM,82.0,46.0,28,30.07,10.0,SSE,9.2,-,N/A,,Clear,150,2013-07-02 21:53:00
4:53 PM,81.0,44.1,27,30.05,10.0,SE,8.1,-,N/A,,Clear,130,2013-07-02 22:53:00
5:53 PM,81.0,45.0,28,30.04,10.0,ESE,9.2,-,N/A,,Clear,120,2013-07-02 23:53:00
6:53 PM,79.0,45.0,30,30.03,10.0,ESE,8.1,-,N/A,,Clear,120,2013-07-03 00:53:00
7:53 PM,73.0,46.0,38,30.03,10.0,SE,6.9,-,N/A,,Clear,130,2013-07-03 01:53:00
8:53 PM,64.0,48.0,56,30.03,10.0,SE,8.1,-,N/A,,Mostly Cloudy,130,2013-07-03 02:53:00
9:53 PM,60.1,48.9,67,30.05,10.0,SSE,6.9,-,N/A,,Partly Cloudy,150,2013-07-03 03:53:00
10:53 PM,59.0,48.9,69,30.04,10.0,SSE,8.1,-,N/A,,Partly Cloudy,150,2013-07-03 04:53:00
11:53 PM,57.9,48.0,70,30.03,10.0,SSE,9.2,-,N/A,,Clear,150,2013-07-03 05:53:00